Location: ?????
(32.7281°N, 34.9563°E)
Time: 22:41:05
(UTC+00:00)

CZ-4B R/B - Pass Details

Date: 04 March 2021
Orbit: 388 x 454 km, 97.6° (Epoch: 21 April)

Event Time Altitude Azimuth Distance (km) Brightness Sun altitude
Rises 16:24:14 0° 353° (N) 2,293 5.1 -10.1°
Reaches altitude 10° 16:26:32 10° 336° (NNW) 1,440 4.3 -10.6°
Maximum altitude 16:28:49 19° 287° (WNW) 1,010 4.2 -11.1°
Drops below altitude 10° 16:31:07 10° 239° (WSW) 1,452 5.0 -11.6°
Sets 16:33:27 0° 221° (SW) 2,320 5.7 -12.1°
